BEIDOU 18 (C57)

Last updated on Oct. 29, 2020, 5:53 a.m. UTC

1 40748U 15037A   20302.66926306 -.00000109  00000-0  00000+0 0  9994
2 40748  55.9408  11.8599 0001194 326.6372  40.9885  1.86232008 35803
UTC
Height (km)
Latitude
Longitude
Inclination
Orbital Period
UTC large
Height (km)
Speed (km/s)
/
Latitude / Longitude
Inclination (degrees)
Orbital Period (minutes)
Azimuth
Elevation
Range (km)
Doppler Factor
iOS Compass Heading
iOS Angle

Next 30 passes for location: Hong Kong

Rise time Rise Azimuth (degrees) Set time Set Azimuth (degrees) Duration Max altitude (degrees)

No matching passes for this satellites